Location: Bailleul
(50.3375°N, 2.8513°E)
Time: 02:56:26
(UTC+00:00)

Cosmos 1980 - Pass Details

Date: 28 October 2021
Orbit: 839 x 847 km, 71.0° (Epoch: 01 December)

Event Time Altitude Azimuth Distance (km) Brightness Sun altitude
Rises 05:51:11 0° 325° (NW) 3,410 6.4 -7.2°
Reaches altitude 10° 05:53:47 10° 318° (NW) 2,472 5.6 -6.8°
Maximum altitude 05:58:57 38° 253° (WSW) 1,276 4.3 -6.0°
Drops below altitude 10° 06:04:06 10° 187° (S) 2,461 6.2 -5.2°
Sets 06:06:41 0° 179° (S) 3,393 7.1 -4.8°
